Year,Month,Day,Hour,Minute,Value (Times are PST for temperature in C)
2013,04,23,00,00,5.20
2013,04,23,00,01,5.10
2013,04,23,00,02,5.10
2013,04,23,00,03,5.10
2013,04,23,00,04,5.10
2013,04,23,00,05,5.10
2013,04,23,00,06,5.10
2013,04,23,00,07,5.10
2013,04,23,00,08,5.10
2013,04,23,00,09,5.10
2013,04,23,00,10,5.10
2013,04,23,00,11,5.10
2013,04,23,00,12,5.10
2013,04,23,00,13,5.10
2013,04,23,00,14,5.10
2013,04,23,00,15,5.10
2013,04,23,00,16,5.10
2013,04,23,00,17,5.10
2013,04,23,00,18,5.10
2013,04,23,00,19,5.10
2013,04,23,00,20,5.00
2013,04,23,00,21,4.90
2013,04,23,00,22,4.90
2013,04,23,00,23,4.90
2013,04,23,00,24,4.90
2013,04,23,00,25,4.90
2013,04,23,00,26,4.90
2013,04,23,00,27,4.90
2013,04,23,00,28,4.90
2013,04,23,00,29,4.90
2013,04,23,00,30,4.90
2013,04,23,00,31,4.90
2013,04,23,00,32,4.90
2013,04,23,00,33,4.90
2013,04,23,00,34,4.90
2013,04,23,00,35,4.90
2013,04,23,00,36,4.90
2013,04,23,00,37,4.90
2013,04,23,00,38,4.90
2013,04,23,00,39,4.90
2013,04,23,00,40,4.90
2013,04,23,00,41,4.90
2013,04,23,00,42,4.90
2013,04,23,00,43,4.90
2013,04,23,00,44,4.90
2013,04,23,00,45,4.90
2013,04,23,00,46,4.90
2013,04,23,00,47,4.90
2013,04,23,00,48,4.90
2013,04,23,00,49,4.90
2013,04,23,00,50,4.90
2013,04,23,00,51,4.90
2013,04,23,00,52,4.90
2013,04,23,00,53,4.90
2013,04,23,00,54,4.90
2013,04,23,00,55,4.90
2013,04,23,00,56,4.90
2013,04,23,00,57,4.90
2013,04,23,00,58,4.90
2013,04,23,00,59,4.90
2013,04,23,01,00,4.90
2013,04,23,01,01,4.90
2013,04,23,01,02,4.90
2013,04,23,01,03,4.90
2013,04,23,01,04,4.90
2013,04,23,01,05,4.90
2013,04,23,01,06,4.90
2013,04,23,01,07,4.90
2013,04,23,01,08,4.90
2013,04,23,01,09,4.90
2013,04,23,01,10,4.90
2013,04,23,01,11,4.90
2013,04,23,01,12,4.90
2013,04,23,01,13,4.90
2013,04,23,01,14,4.90
2013,04,23,01,15,4.90
2013,04,23,01,16,4.90
2013,04,23,01,17,4.90
2013,04,23,01,18,4.90
2013,04,23,01,19,4.90
2013,04,23,01,20,4.90
2013,04,23,01,21,4.90
2013,04,23,01,22,4.90
2013,04,23,01,23,4.90
2013,04,23,01,24,4.90
2013,04,23,01,25,4.90
2013,04,23,01,26,4.90
2013,04,23,01,27,4.90
2013,04,23,01,28,4.90
2013,04,23,01,29,4.90
2013,04,23,01,30,4.90
2013,04,23,01,31,4.90
2013,04,23,01,32,4.90
2013,04,23,01,33,4.90
2013,04,23,01,34,4.90
2013,04,23,01,35,4.90
2013,04,23,01,36,4.90
2013,04,23,01,37,4.90
2013,04,23,01,38,4.90
2013,04,23,01,39,4.90
2013,04,23,01,40,4.90
2013,04,23,01,41,4.90
2013,04,23,01,42,4.90
2013,04,23,01,43,4.90
2013,04,23,01,44,4.90
2013,04,23,01,45,4.90
2013,04,23,01,46,4.90
2013,04,23,01,47,4.90
2013,04,23,01,48,4.90
2013,04,23,01,49,4.90
2013,04,23,01,50,4.90
2013,04,23,01,51,4.80
2013,04,23,01,52,4.80
2013,04,23,01,53,4.80
2013,04,23,01,54,4.80
2013,04,23,01,55,4.80
2013,04,23,01,56,4.80
2013,04,23,01,57,4.80
2013,04,23,01,58,4.80
2013,04,23,01,59,4.80
2013,04,23,02,00,4.80
2013,04,23,02,01,4.80
2013,04,23,02,02,4.70
2013,04,23,02,03,4.70
2013,04,23,02,04,4.70
2013,04,23,02,05,4.70
2013,04,23,02,06,4.70
2013,04,23,02,07,4.70
2013,04,23,02,08,4.70
2013,04,23,02,09,4.70
2013,04,23,02,10,4.70
2013,04,23,02,11,4.60
2013,04,23,02,12,4.60
2013,04,23,02,13,4.60
2013,04,23,02,14,4.60
2013,04,23,02,15,4.60
2013,04,23,02,16,4.60
2013,04,23,02,17,4.60
2013,04,23,02,18,4.60
2013,04,23,02,19,4.60
2013,04,23,02,20,4.60
2013,04,23,02,21,4.60
2013,04,23,02,22,4.60
2013,04,23,02,23,4.60
2013,04,23,02,24,4.60
2013,04,23,02,25,4.60
2013,04,23,02,26,4.60
2013,04,23,02,27,4.60
2013,04,23,02,28,4.60
2013,04,23,02,29,4.60
2013,04,23,02,30,4.60
2013,04,23,02,31,4.50
2013,04,23,02,32,4.50
2013,04,23,02,33,4.50
2013,04,23,02,34,4.50
2013,04,23,02,35,4.50
2013,04,23,02,36,4.50
2013,04,23,02,37,4.50
2013,04,23,02,38,4.50
2013,04,23,02,39,4.50
2013,04,23,02,40,4.50
2013,04,23,02,41,4.50
2013,04,23,02,42,4.50
2013,04,23,02,43,4.50
2013,04,23,02,44,4.50
2013,04,23,02,45,4.40
2013,04,23,02,46,4.40
2013,04,23,02,47,4.40
2013,04,23,02,48,4.40
2013,04,23,02,49,4.40
2013,04,23,02,50,4.40
2013,04,23,02,51,4.40
2013,04,23,02,52,4.40
2013,04,23,02,53,4.40
2013,04,23,02,54,4.40
2013,04,23,02,55,4.30
2013,04,23,02,56,4.30
2013,04,23,02,57,4.30
2013,04,23,02,58,4.30
2013,04,23,02,59,4.30
2013,04,23,03,00,4.30
2013,04,23,03,01,4.30
2013,04,23,03,02,4.30
2013,04,23,03,03,4.30
2013,04,23,03,04,4.20
2013,04,23,03,05,4.20
2013,04,23,03,06,4.20
2013,04,23,03,07,4.20
2013,04,23,03,08,4.20
2013,04,23,03,09,4.20
2013,04,23,03,10,4.20
2013,04,23,03,11,4.20
2013,04,23,03,12,4.20
2013,04,23,03,13,4.20
2013,04,23,03,14,4.20
2013,04,23,03,15,4.20
2013,04,23,03,16,4.20
2013,04,23,03,17,4.20
2013,04,23,03,18,4.20
2013,04,23,03,19,4.20
2013,04,23,03,20,4.10
2013,04,23,03,21,4.10
2013,04,23,03,22,4.10
2013,04,23,03,23,4.10
2013,04,23,03,24,4.10
2013,04,23,03,25,4.10
2013,04,23,03,26,4.00
2013,04,23,03,27,4.00
2013,04,23,03,28,4.00
2013,04,23,03,29,4.00
2013,04,23,03,30,4.00
2013,04,23,03,31,4.00
2013,04,23,03,32,4.00
2013,04,23,03,33,4.00
2013,04,23,03,34,4.00
2013,04,23,03,35,4.00
2013,04,23,03,36,4.00
2013,04,23,03,37,4.00
2013,04,23,03,38,4.00
2013,04,23,03,39,4.00
2013,04,23,03,40,4.00
2013,04,23,03,41,4.00
2013,04,23,03,42,4.00
2013,04,23,03,43,4.00
2013,04,23,03,44,4.00
2013,04,23,03,45,4.00
2013,04,23,03,46,4.00
2013,04,23,03,47,4.00
2013,04,23,03,48,4.00
2013,04,23,03,49,4.00
2013,04,23,03,50,3.90
2013,04,23,03,51,3.90
2013,04,23,03,52,3.90
2013,04,23,03,53,3.90
2013,04,23,03,54,3.90
2013,04,23,03,55,3.90
2013,04,23,03,56,3.90
2013,04,23,03,57,3.90
2013,04,23,03,58,3.90
2013,04,23,03,59,3.90
2013,04,23,04,00,3.90
2013,04,23,04,01,3.90
2013,04,23,04,02,3.90
2013,04,23,04,03,3.90
2013,04,23,04,04,3.90
2013,04,23,04,05,3.90
2013,04,23,04,06,3.90
2013,04,23,04,07,3.90
2013,04,23,04,08,3.90
2013,04,23,04,09,3.90
2013,04,23,04,10,3.90
2013,04,23,04,11,4.00
2013,04,23,04,12,4.00
2013,04,23,04,13,4.00
2013,04,23,04,14,4.00
2013,04,23,04,15,4.00
2013,04,23,04,16,4.00
2013,04,23,04,17,4.00
2013,04,23,04,18,4.00
2013,04,23,04,19,4.00
2013,04,23,04,20,4.00
2013,04,23,04,21,4.00
2013,04,23,04,22,4.00
2013,04,23,04,23,4.00
2013,04,23,04,24,4.10
2013,04,23,04,25,4.10
2013,04,23,04,26,4.10
2013,04,23,04,27,4.10
2013,04,23,04,28,4.10
2013,04,23,04,29,4.10
2013,04,23,04,30,4.10
2013,04,23,04,31,4.10
2013,04,23,04,32,4.10
2013,04,23,04,33,4.10
2013,04,23,04,34,4.10
2013,04,23,04,35,4.10
2013,04,23,04,36,4.10
2013,04,23,04,37,4.10
2013,04,23,04,38,4.10
2013,04,23,04,39,4.10
2013,04,23,04,40,4.10
2013,04,23,04,41,4.10
2013,04,23,04,42,4.10
2013,04,23,04,43,4.10
2013,04,23,04,44,4.10
2013,04,23,04,45,4.10
2013,04,23,04,46,4.10
2013,04,23,04,47,4.10
2013,04,23,04,48,4.10
2013,04,23,04,49,4.10
2013,04,23,04,50,4.20
2013,04,23,04,51,4.20
2013,04,23,04,52,4.20
2013,04,23,04,53,4.20
2013,04,23,04,54,4.20
2013,04,23,04,55,4.20
2013,04,23,04,56,4.20
2013,04,23,04,57,4.20
2013,04,23,04,58,4.20
2013,04,23,04,59,4.20
2013,04,23,05,00,4.20
2013,04,23,05,01,4.20
2013,04,23,05,02,4.20
2013,04,23,05,03,4.20
2013,04,23,05,04,4.20
2013,04,23,05,05,4.20
2013,04,23,05,06,4.20
2013,04,23,05,07,4.20
2013,04,23,05,08,4.20
2013,04,23,05,09,4.20
2013,04,23,05,10,4.20
2013,04,23,05,11,4.20
2013,04,23,05,12,4.20
2013,04,23,05,13,4.20
2013,04,23,05,14,4.20
2013,04,23,05,15,4.20
2013,04,23,05,16,4.20
2013,04,23,05,17,4.20
2013,04,23,05,18,4.20
2013,04,23,05,19,4.20
2013,04,23,05,20,4.20
2013,04,23,05,21,4.20
2013,04,23,05,22,4.20
2013,04,23,05,23,4.10
2013,04,23,05,24,4.10
2013,04,23,05,25,4.10
2013,04,23,05,26,4.10
2013,04,23,05,27,4.10
2013,04,23,05,28,4.10
2013,04,23,05,29,4.10
2013,04,23,05,30,4.10
2013,04,23,05,31,4.10
2013,04,23,05,32,4.10
2013,04,23,05,33,4.10
2013,04,23,05,34,4.10
2013,04,23,05,35,4.10
2013,04,23,05,36,4.10
2013,04,23,05,37,4.10
2013,04,23,05,38,4.10
2013,04,23,05,39,4.10
2013,04,23,05,40,4.10
2013,04,23,05,41,4.10
2013,04,23,05,42,4.10
2013,04,23,05,43,4.10
2013,04,23,05,44,4.10
2013,04,23,05,45,4.10
2013,04,23,05,46,4.10
2013,04,23,05,47,4.10
2013,04,23,05,48,4.10
2013,04,23,05,49,4.10
2013,04,23,05,50,4.10
2013,04,23,05,51,4.10
2013,04,23,05,52,4.00
2013,04,23,05,53,4.00
2013,04,23,05,54,4.00
2013,04,23,05,55,4.00
2013,04,23,05,56,4.00
2013,04,23,05,57,4.00
2013,04,23,05,58,4.10
2013,04,23,05,59,4.10
2013,04,23,06,00,4.10
2013,04,23,06,01,4.10
2013,04,23,06,02,4.10
2013,04,23,06,03,4.10
2013,04,23,06,04,4.10
2013,04,23,06,05,4.10
2013,04,23,06,06,4.10
2013,04,23,06,07,4.10
2013,04,23,06,08,4.10
2013,04,23,06,09,4.10
2013,04,23,06,10,4.10
2013,04,23,06,11,4.10
2013,04,23,06,12,4.10
2013,04,23,06,13,4.10
2013,04,23,06,14,4.10
2013,04,23,06,15,4.10
2013,04,23,06,16,4.10
2013,04,23,06,17,4.10
2013,04,23,06,18,4.20
2013,04,23,06,19,4.20
2013,04,23,06,20,4.20
2013,04,23,06,21,4.20
2013,04,23,06,22,4.20
2013,04,23,06,23,4.20
2013,04,23,06,24,4.20
2013,04,23,06,25,4.20
2013,04,23,06,26,4.20
2013,04,23,06,27,4.20
2013,04,23,06,28,4.20
2013,04,23,06,29,4.20
2013,04,23,06,30,4.20
2013,04,23,06,31,4.30
2013,04,23,06,32,4.30
2013,04,23,06,33,4.30
2013,04,23,06,34,4.30
2013,04,23,06,35,4.30
2013,04,23,06,36,4.40
2013,04,23,06,37,4.40
2013,04,23,06,38,4.40
2013,04,23,06,39,4.40
2013,04,23,06,40,4.40
2013,04,23,06,41,4.40
2013,04,23,06,42,4.40
2013,04,23,06,43,4.50
2013,04,23,06,44,4.50
2013,04,23,06,45,4.50
2013,04,23,06,46,4.50
2013,04,23,06,47,4.50
2013,04,23,06,48,4.50
2013,04,23,06,49,4.50
2013,04,23,06,50,4.50
2013,04,23,06,51,4.50
2013,04,23,06,52,4.60
2013,04,23,06,53,4.60
2013,04,23,06,54,4.60
2013,04,23,06,55,4.60
2013,04,23,06,56,4.60
2013,04,23,06,57,4.60
2013,04,23,06,58,4.60
2013,04,23,06,59,4.60
2013,04,23,07,00,4.60
2013,04,23,07,01,4.60
2013,04,23,07,02,4.60
2013,04,23,07,03,4.70
2013,04,23,07,04,4.70
2013,04,23,07,05,4.70
2013,04,23,07,06,4.70
2013,04,23,07,07,4.70
2013,04,23,07,08,4.70
2013,04,23,07,09,4.70
2013,04,23,07,10,4.70
2013,04,23,07,11,4.80
2013,04,23,07,12,4.80
2013,04,23,07,13,4.80
2013,04,23,07,14,4.80
2013,04,23,07,15,4.80
2013,04,23,07,16,4.90
2013,04,23,07,17,4.90
2013,04,23,07,18,4.90
2013,04,23,07,19,4.90
2013,04,23,07,20,4.90
2013,04,23,07,21,4.90
2013,04,23,07,22,4.90
2013,04,23,07,23,4.90
2013,04,23,07,24,5.10
2013,04,23,07,25,5.10
2013,04,23,07,26,5.10
2013,04,23,07,27,5.10
2013,04,23,07,28,5.10
2013,04,23,07,29,5.10
2013,04,23,07,30,5.10
2013,04,23,07,31,5.10
2013,04,23,07,32,5.20
2013,04,23,07,33,5.20
2013,04,23,07,34,5.30
2013,04,23,07,35,5.30
2013,04,23,07,36,5.30
2013,04,23,07,37,5.30
2013,04,23,07,38,5.40
2013,04,23,07,39,5.40
2013,04,23,07,40,5.50
2013,04,23,07,41,5.50
2013,04,23,07,42,5.60
2013,04,23,07,43,5.60
2013,04,23,07,44,5.60
2013,04,23,07,45,5.70
2013,04,23,07,46,5.70
2013,04,23,07,47,5.80
2013,04,23,07,48,5.90
2013,04,23,07,49,5.90
2013,04,23,07,50,6.00
2013,04,23,07,51,6.00
2013,04,23,07,52,6.00
2013,04,23,07,53,6.10
2013,04,23,07,54,6.10
2013,04,23,07,55,6.10
2013,04,23,07,56,6.20
2013,04,23,07,57,6.20
2013,04,23,07,58,6.20
2013,04,23,07,59,6.30
2013,04,23,08,00,6.40
2013,04,23,08,01,6.40
2013,04,23,08,02,6.40
2013,04,23,08,03,6.50
2013,04,23,08,04,6.60
2013,04,23,08,05,6.60
2013,04,23,08,06,6.60
2013,04,23,08,07,6.70
2013,04,23,08,08,6.70
2013,04,23,08,09,6.80
2013,04,23,08,10,6.80
2013,04,23,08,11,6.80
2013,04,23,08,12,6.80
2013,04,23,08,13,6.80
2013,04,23,08,14,6.90
2013,04,23,08,15,6.90
2013,04,23,08,16,6.90
2013,04,23,08,17,6.90
2013,04,23,08,18,6.90
2013,04,23,08,19,7.00
2013,04,23,08,20,7.00
2013,04,23,08,21,7.00
2013,04,23,08,22,7.00
2013,04,23,08,23,7.10
2013,04,23,08,24,7.10
2013,04,23,08,25,7.10
2013,04,23,08,26,7.20
2013,04,23,08,27,7.30
2013,04,23,08,28,7.30
2013,04,23,08,29,7.30
2013,04,23,08,30,7.40
2013,04,23,08,31,7.40
2013,04,23,08,32,7.50
2013,04,23,08,33,7.50
2013,04,23,08,34,7.50
2013,04,23,08,35,7.60
2013,04,23,08,36,7.60
2013,04,23,08,37,7.70
2013,04,23,08,38,7.70
2013,04,23,08,39,7.80
2013,04,23,08,40,7.80
2013,04,23,08,41,7.80
2013,04,23,08,42,7.80
2013,04,23,08,43,7.80
2013,04,23,08,44,7.90
2013,04,23,08,45,7.90
2013,04,23,08,46,8.00
2013,04,23,08,47,8.00
2013,04,23,08,48,8.00
2013,04,23,08,49,8.10
2013,04,23,08,50,8.10
2013,04,23,08,51,8.20
2013,04,23,08,52,8.20
2013,04,23,08,53,8.20
2013,04,23,08,54,8.20
2013,04,23,08,55,8.30
2013,04,23,08,56,8.30
2013,04,23,08,57,8.30
2013,04,23,08,58,8.30
2013,04,23,08,59,8.40
2013,04,23,09,00,8.40
2013,04,23,09,01,8.40
2013,04,23,09,02,8.40
2013,04,23,09,03,8.40
2013,04,23,09,04,8.40
2013,04,23,09,05,8.50
2013,04,23,09,06,8.50
2013,04,23,09,07,8.50
2013,04,23,09,08,8.50
2013,04,23,09,09,8.50
2013,04,23,09,10,8.60
2013,04,23,09,11,8.60
2013,04,23,09,12,8.60
2013,04,23,09,13,8.60
2013,04,23,09,14,8.70
2013,04,23,09,15,8.70
2013,04,23,09,16,8.70
2013,04,23,09,17,8.70
2013,04,23,09,18,8.70
2013,04,23,09,19,8.70
2013,04,23,09,20,8.70
2013,04,23,09,21,8.80
2013,04,23,09,22,8.80
2013,04,23,09,23,8.90
2013,04,23,09,24,8.90
2013,04,23,09,25,8.90
2013,04,23,09,26,9.00
2013,04,23,09,27,9.10
2013,04,23,09,28,9.10
2013,04,23,09,29,9.20
2013,04,23,09,30,9.20
2013,04,23,09,31,9.30
2013,04,23,09,32,9.30
2013,04,23,09,33,9.30
2013,04,23,09,34,9.30
2013,04,23,09,35,9.40
2013,04,23,09,36,9.40
2013,04,23,09,37,9.50
2013,04,23,09,38,9.50
2013,04,23,09,39,9.60
2013,04,23,09,40,9.60
2013,04,23,09,41,9.60
2013,04,23,09,42,9.60
2013,04,23,09,43,9.70
2013,04,23,09,44,9.70
2013,04,23,09,45,9.70
2013,04,23,09,46,9.70
2013,04,23,09,47,9.70
2013,04,23,09,48,9.80
2013,04,23,09,49,9.80
2013,04,23,09,50,9.90
2013,04,23,09,51,9.90
2013,04,23,09,52,9.90
2013,04,23,09,53,9.90
2013,04,23,09,54,9.90
2013,04,23,09,55,9.90
2013,04,23,09,56,10.00
2013,04,23,09,57,10.10
2013,04,23,09,58,10.10
2013,04,23,09,59,10.10
2013,04,23,10,00,10.10
2013,04,23,10,01,10.10
2013,04,23,10,02,10.10
2013,04,23,10,03,10.10
2013,04,23,10,04,10.10
2013,04,23,10,05,10.10
2013,04,23,10,06,10.10
2013,04,23,10,07,10.10
2013,04,23,10,08,10.10
2013,04,23,10,09,10.10
2013,04,23,10,10,10.10
2013,04,23,10,11,10.10
2013,04,23,10,12,10.10
2013,04,23,10,13,10.10
2013,04,23,10,14,10.20
2013,04,23,10,15,10.20
2013,04,23,10,16,10.30
2013,04,23,10,17,10.30
2013,04,23,10,18,10.30
2013,04,23,10,19,10.40
2013,04,23,10,20,10.40
2013,04,23,10,21,10.40
2013,04,23,10,22,10.40
2013,04,23,10,23,10.40
2013,04,23,10,24,10.40
2013,04,23,10,25,10.30
2013,04,23,10,26,10.30
2013,04,23,10,27,10.20
2013,04,23,10,28,10.20
2013,04,23,10,29,10.20
2013,04,23,10,30,10.10
2013,04,23,10,31,10.10
2013,04,23,10,32,10.10
2013,04,23,10,33,10.20
2013,04,23,10,34,10.20
2013,04,23,10,35,10.30
2013,04,23,10,36,10.40
2013,04,23,10,37,10.40
2013,04,23,10,38,10.40
2013,04,23,10,39,10.40
2013,04,23,10,40,10.40
2013,04,23,10,41,10.40
2013,04,23,10,42,10.40
2013,04,23,10,43,10.40
2013,04,23,10,44,10.40
2013,04,23,10,45,10.40
2013,04,23,10,46,10.30
2013,04,23,10,47,10.40
2013,04,23,10,48,10.40
2013,04,23,10,49,10.40
2013,04,23,10,50,10.40
2013,04,23,10,51,10.40
2013,04,23,10,52,10.40
2013,04,23,10,53,10.40
2013,04,23,10,54,10.40
2013,04,23,10,55,10.40
2013,04,23,10,56,10.50
2013,04,23,10,57,10.60
2013,04,23,10,58,10.60
2013,04,23,10,59,10.60
2013,04,23,11,00,10.60
2013,04,23,11,01,10.80
2013,04,23,11,02,10.90
2013,04,23,11,03,11.00
2013,04,23,11,04,11.10
2013,04,23,11,05,11.10
2013,04,23,11,06,11.10
2013,04,23,11,07,11.20
2013,04,23,11,08,11.20
2013,04,23,11,09,11.30
2013,04,23,11,10,11.40
2013,04,23,11,11,11.40
2013,04,23,11,12,11.40
2013,04,23,11,13,11.40
2013,04,23,11,14,11.40
2013,04,23,11,15,11.50
2013,04,23,11,16,11.60
2013,04,23,11,17,11.70
2013,04,23,11,18,11.80
2013,04,23,11,19,11.80
2013,04,23,11,20,11.80
2013,04,23,11,21,11.80
2013,04,23,11,22,11.80
2013,04,23,11,23,11.80
2013,04,23,11,24,11.70
2013,04,23,11,25,11.70
2013,04,23,11,26,11.70
2013,04,23,11,27,11.70
2013,04,23,11,28,11.70
2013,04,23,11,29,11.80
2013,04,23,11,30,11.80
2013,04,23,11,31,11.80
2013,04,23,11,32,11.80
2013,04,23,11,33,11.90
2013,04,23,11,34,12.00
2013,04,23,11,35,12.10
2013,04,23,11,36,12.10
2013,04,23,11,37,12.10
2013,04,23,11,38,12.20
2013,04,23,11,39,12.30
2013,04,23,11,40,12.30
2013,04,23,11,41,12.30
2013,04,23,11,42,12.20
2013,04,23,11,43,12.20
2013,04,23,11,44,12.20
2013,04,23,11,45,12.30
2013,04,23,11,46,12.40
2013,04,23,11,47,12.50
2013,04,23,11,48,12.50
2013,04,23,11,49,12.60
2013,04,23,11,50,12.70
2013,04,23,11,51,12.70
2013,04,23,11,52,12.70
2013,04,23,11,53,12.80
2013,04,23,11,54,12.80
2013,04,23,11,55,12.80
2013,04,23,11,56,12.80
2013,04,23,11,57,12.80
2013,04,23,11,58,13.00
2013,04,23,11,59,13.10
2013,04,23,12,00,13.10
2013,04,23,12,01,13.20
2013,04,23,12,02,13.20
2013,04,23,12,03,13.20
2013,04,23,12,04,13.20
2013,04,23,12,05,13.30
2013,04,23,12,06,13.40
2013,04,23,12,07,13.50
2013,04,23,12,08,13.50
2013,04,23,12,09,13.50
2013,04,23,12,10,13.50
2013,04,23,12,11,13.50
2013,04,23,12,12,13.60
2013,04,23,12,13,13.60
2013,04,23,12,14,13.70
2013,04,23,12,15,13.80
2013,04,23,12,16,13.90
2013,04,23,12,17,13.90
2013,04,23,12,18,13.90
2013,04,23,12,19,14.00
2013,04,23,12,20,14.00
2013,04,23,12,21,14.00
2013,04,23,12,22,14.10
2013,04,23,12,23,14.10
2013,04,23,12,24,14.20
2013,04,23,12,25,14.20
2013,04,23,12,26,14.20
2013,04,23,12,27,14.20
2013,04,23,12,28,14.20
2013,04,23,12,29,14.20
2013,04,23,12,30,14.20
2013,04,23,12,31,14.20
2013,04,23,12,32,14.20
2013,04,23,12,33,14.20
2013,04,23,12,34,14.20
2013,04,23,12,35,14.20
2013,04,23,12,36,14.20
2013,04,23,12,37,14.20
2013,04,23,12,38,14.20
2013,04,23,12,39,14.20
2013,04,23,12,40,14.00
2013,04,23,12,41,14.00
2013,04,23,12,42,14.00
2013,04,23,12,43,14.00
2013,04,23,12,44,14.00
2013,04,23,12,45,14.00
2013,04,23,12,46,14.10
2013,04,23,12,47,14.10
2013,04,23,12,48,14.40
2013,04,23,12,49,14.60
2013,04,23,12,50,14.70
2013,04,23,12,51,14.80
2013,04,23,12,52,15.00
2013,04,23,12,53,15.10
2013,04,23,12,54,15.20
2013,04,23,12,55,15.20
2013,04,23,12,56,15.20
2013,04,23,12,57,15.10
2013,04,23,12,58,14.90
2013,04,23,12,59,14.70
2013,04,23,13,00,14.70
2013,04,23,13,01,14.70
2013,04,23,13,02,14.70
2013,04,23,13,03,14.70
2013,04,23,13,04,14.70
2013,04,23,13,05,14.80
2013,04,23,13,06,14.80
2013,04,23,13,07,14.80
2013,04,23,13,08,14.80
2013,04,23,13,09,14.80
2013,04,23,13,10,14.80
2013,04,23,13,11,14.80
2013,04,23,13,12,14.90
2013,04,23,13,13,14.90
2013,04,23,13,14,14.90
2013,04,23,13,15,15.00
2013,04,23,13,16,15.10
2013,04,23,13,17,15.10
2013,04,23,13,18,15.20
2013,04,23,13,19,15.30
2013,04,23,13,20,15.40
2013,04,23,13,21,15.40
2013,04,23,13,22,15.40
2013,04,23,13,23,15.40
2013,04,23,13,24,15.40
2013,04,23,13,25,15.50
2013,04,23,13,26,15.60
2013,04,23,13,27,15.50
2013,04,23,13,28,15.40
2013,04,23,13,29,15.30
2013,04,23,13,30,15.10
2013,04,23,13,31,15.00
2013,04,23,13,32,15.00
2013,04,23,13,33,15.00
2013,04,23,13,34,15.00
2013,04,23,13,35,15.00
2013,04,23,13,36,15.10
2013,04,23,13,37,15.20
2013,04,23,13,38,15.30
2013,04,23,13,39,15.30
2013,04,23,13,40,15.30
2013,04,23,13,41,15.50
2013,04,23,13,42,15.70
2013,04,23,13,43,15.70
2013,04,23,13,44,15.70
2013,04,23,13,45,15.70
2013,04,23,13,46,15.60
2013,04,23,13,47,15.60
2013,04,23,13,48,15.70
2013,04,23,13,49,15.80
2013,04,23,13,50,15.90
2013,04,23,13,51,16.00
2013,04,23,13,52,16.10
2013,04,23,13,53,16.30
2013,04,23,13,54,16.30
2013,04,23,13,55,16.40
2013,04,23,13,56,16.40
2013,04,23,13,57,16.40
2013,04,23,13,58,16.40
2013,04,23,13,59,16.40
2013,04,23,14,00,16.40
2013,04,23,14,01,16.40
2013,04,23,14,02,16.30
2013,04,23,14,03,16.30
2013,04,23,14,04,16.20
2013,04,23,14,05,16.20
2013,04,23,14,06,16.20
2013,04,23,14,07,16.10
2013,04,23,14,08,16.10
2013,04,23,14,09,15.90
2013,04,23,14,10,15.80
2013,04,23,14,11,16.00
2013,04,23,14,12,16.20
2013,04,23,14,13,16.20
2013,04,23,14,14,16.10
2013,04,23,14,15,16.10
2013,04,23,14,16,16.10
2013,04,23,14,17,15.90
2013,04,23,14,18,15.80
2013,04,23,14,19,15.70
2013,04,23,14,20,15.60
2013,04,23,14,21,15.60
2013,04,23,14,22,15.70
2013,04,23,14,23,15.60
2013,04,23,14,24,15.60
2013,04,23,14,25,15.70
2013,04,23,14,26,15.80
2013,04,23,14,27,15.80
2013,04,23,14,28,15.80
2013,04,23,14,29,15.80
2013,04,23,14,30,15.90
2013,04,23,14,31,15.90
2013,04,23,14,32,16.00
2013,04,23,14,33,16.10
2013,04,23,14,34,16.10
2013,04,23,14,35,16.10
2013,04,23,14,36,16.20
2013,04,23,14,37,16.20
2013,04,23,14,38,16.30
2013,04,23,14,39,16.20
2013,04,23,14,40,16.20
2013,04,23,14,41,16.20
2013,04,23,14,42,16.10
2013,04,23,14,43,16.20
2013,04,23,14,44,16.20
2013,04,23,14,45,16.30
2013,04,23,14,46,16.30
2013,04,23,14,47,16.40
2013,04,23,14,48,16.40
2013,04,23,14,49,16.30
2013,04,23,14,50,16.20
2013,04,23,14,51,16.00
2013,04,23,14,52,15.90
2013,04,23,14,53,15.80
2013,04,23,14,54,15.80
2013,04,23,14,55,15.80
2013,04,23,14,56,15.80
2013,04,23,14,57,16.00
2013,04,23,14,58,16.10
2013,04,23,14,59,16.20
2013,04,23,15,00,16.30
2013,04,23,15,01,16.40
2013,04,23,15,02,16.40
2013,04,23,15,03,16.40
2013,04,23,15,04,16.60
2013,04,23,15,05,16.60
2013,04,23,15,06,16.50
2013,04,23,15,07,16.40
2013,04,23,15,08,16.40
2013,04,23,15,09,16.40
2013,04,23,15,10,16.50
2013,04,23,15,11,16.60
2013,04,23,15,12,16.70
2013,04,23,15,13,16.80
2013,04,23,15,14,16.90
2013,04,23,15,15,17.00
2013,04,23,15,16,17.00
2013,04,23,15,17,16.90
2013,04,23,15,18,16.80
2013,04,23,15,19,16.80
2013,04,23,15,20,16.70
2013,04,23,15,21,16.70
2013,04,23,15,22,16.70
2013,04,23,15,23,16.90
2013,04,23,15,24,16.90
2013,04,23,15,25,17.00
2013,04,23,15,26,17.00
2013,04,23,15,27,17.00
2013,04,23,15,28,17.00
2013,04,23,15,29,16.80
2013,04,23,15,30,16.70
2013,04,23,15,31,16.70
2013,04,23,15,32,16.70
2013,04,23,15,33,16.70
2013,04,23,15,34,16.70
2013,04,23,15,35,16.80
2013,04,23,15,36,16.80
2013,04,23,15,37,16.80
2013,04,23,15,38,16.80
2013,04,23,15,39,16.80
2013,04,23,15,40,16.80
2013,04,23,15,41,16.80
2013,04,23,15,42,16.80
2013,04,23,15,43,16.80
2013,04,23,15,44,16.90
2013,04,23,15,45,17.00
2013,04,23,15,46,17.00
2013,04,23,15,47,17.00
2013,04,23,15,48,17.00
2013,04,23,15,49,17.00
2013,04,23,15,50,17.10
2013,04,23,15,51,17.30
2013,04,23,15,52,17.30
2013,04,23,15,53,17.30
2013,04,23,15,54,17.30
2013,04,23,15,55,17.30
2013,04,23,15,56,17.50
2013,04,23,15,57,17.50
2013,04,23,15,58,17.50
2013,04,23,15,59,17.40
2013,04,23,16,00,17.40
2013,04,23,16,01,17.40
2013,04,23,16,02,17.30
2013,04,23,16,03,17.30
2013,04,23,16,04,17.30
2013,04,23,16,05,17.20
2013,04,23,16,06,17.10
2013,04,23,16,07,17.00
2013,04,23,16,08,17.00
2013,04,23,16,09,17.00
2013,04,23,16,10,16.80
2013,04,23,16,11,16.60
2013,04,23,16,12,16.50
2013,04,23,16,13,16.60
2013,04,23,16,14,16.60
2013,04,23,16,15,16.60
2013,04,23,16,16,16.60
2013,04,23,16,17,16.60
2013,04,23,16,18,16.80
2013,04,23,16,19,16.90
2013,04,23,16,20,16.90
2013,04,23,16,21,16.90
2013,04,23,16,22,16.80
2013,04,23,16,23,16.90
2013,04,23,16,24,16.90
2013,04,23,16,25,17.00
2013,04,23,16,26,17.10
2013,04,23,16,27,17.20
2013,04,23,16,28,17.30
2013,04,23,16,29,17.40
2013,04,23,16,30,17.60
2013,04,23,16,31,17.70
2013,04,23,16,32,17.70
2013,04,23,16,33,17.70
2013,04,23,16,34,17.70
2013,04,23,16,35,17.60
2013,04,23,16,36,17.50
2013,04,23,16,37,17.60
2013,04,23,16,38,17.60
2013,04,23,16,39,17.60
2013,04,23,16,40,17.60
2013,04,23,16,41,17.50
2013,04,23,16,42,17.30
2013,04,23,16,43,17.10
2013,04,23,16,44,16.90
2013,04,23,16,45,16.80
2013,04,23,16,46,16.80
2013,04,23,16,47,16.80
2013,04,23,16,48,16.70
2013,04,23,16,49,16.60
2013,04,23,16,50,16.50
2013,04,23,16,51,16.40
2013,04,23,16,52,16.30
2013,04,23,16,53,16.30
2013,04,23,16,54,16.20
2013,04,23,16,55,16.20
2013,04,23,16,56,16.10
2013,04,23,16,57,16.10
2013,04,23,16,58,16.10
2013,04,23,16,59,16.20
2013,04,23,17,00,16.30
2013,04,23,17,01,16.30
2013,04,23,17,02,16.40
2013,04,23,17,03,16.50
2013,04,23,17,04,16.60
2013,04,23,17,05,16.60
2013,04,23,17,06,16.50
2013,04,23,17,07,16.40
2013,04,23,17,08,16.40
2013,04,23,17,09,16.40
2013,04,23,17,10,16.40
2013,04,23,17,11,16.40
2013,04,23,17,12,16.20
2013,04,23,17,13,16.10
2013,04,23,17,14,16.10
2013,04,23,17,15,16.10
2013,04,23,17,16,16.10
2013,04,23,17,17,16.10
2013,04,23,17,18,16.20
2013,04,23,17,19,16.20
2013,04,23,17,20,16.30
2013,04,23,17,21,16.40
2013,04,23,17,22,16.40
2013,04,23,17,23,16.50
2013,04,23,17,24,16.60
2013,04,23,17,25,16.60
2013,04,23,17,26,16.70
2013,04,23,17,27,16.70
2013,04,23,17,28,16.70
2013,04,23,17,29,16.80
2013,04,23,17,30,16.90
2013,04,23,17,31,17.00
2013,04,23,17,32,17.10
2013,04,23,17,33,17.10
2013,04,23,17,34,17.00
2013,04,23,17,35,16.90
2013,04,23,17,36,16.80
2013,04,23,17,37,16.80
2013,04,23,17,38,16.80
2013,04,23,17,39,16.90
2013,04,23,17,40,16.90
2013,04,23,17,41,16.80
2013,04,23,17,42,16.80
2013,04,23,17,43,16.80
2013,04,23,17,44,16.90
2013,04,23,17,45,16.90